Simultaneous Nadir Overpasses (SNOs) Predictions

Prediction of SNOs between AQUA and NOAA-19 Satellite Orbit:

Table of predicted SNOs for the next 14.0 days since TLE Epoch: 3/19/2022
Index Date (AQUA) Time (AQUA) Lat,Lon (AQUA) SZA (AQUA ) Date (NOAA-19) Time (NOAA-19) Lat,Lon (NOAA-19) SZA (NOAA-19 ) Distance(km) Time Diff (sec)
1 03/19/2022 09:01:47 -77.88,-153.30 100.96 03/19/2022 09:00:41 -77.87,-153.23 100.96 2.24 66
2 03/19/2022 09:51:15 77.92, 14.18 79.07 03/19/2022 09:51:38 77.90, 14.22 79.05 1.73 23
3 03/21/2022 15:24:49 -77.87, 111.02 101.89 03/21/2022 15:24:42 -77.87, 110.86 101.87 3.85 7
4 03/21/2022 16:14:24 78.21, -82.95 78.54 03/21/2022 16:15:30 78.22, -79.83 78.32 70.88 66
5 03/23/2022 20:58:25 77.85,-152.30 77.20 03/23/2022 20:57:40 77.86,-152.38 77.23 2.20 45
6 03/23/2022 21:47:52 -77.90, 15.09 102.74 03/23/2022 21:48:42 -77.91, 15.14 102.76 1.24 50
7 03/26/2022 02:32:00 -77.86, -55.74 103.67 03/26/2022 02:30:46 -77.79, -55.96 103.71 9.91 74
8 03/26/2022 03:21:27 77.86, 111.90 76.32 03/26/2022 03:21:40 77.87, 111.76 76.33 3.39 13
9 03/28/2022 08:55:01 -77.84,-151.38 104.60 03/28/2022 08:54:45 -77.85,-151.52 104.57 3.48 16
10 03/28/2022 09:44:29 77.88, 16.04 75.45 03/28/2022 09:45:40 77.88, 15.89 75.43 3.62 71
11 03/30/2022 14:28:36 77.82, -54.71 74.51 03/30/2022 14:27:41 77.84, -54.71 74.54 2.20 55
12 03/30/2022 15:18:03 -77.87, 112.72 105.45 03/30/2022 15:18:45 -77.88, 112.70 105.46 0.68 42
13 04/01/2022 20:02:02 -77.46, 43.45 106.82 04/01/2022 20:00:58 -77.38, 39.70 106.59 91.30 64
14 04/01/2022 20:51:38 77.87,-150.68 73.68 04/01/2022 20:51:41 77.85,-150.61 73.65 3.33 3



Historial Predications of SNOs between AQUA and NOAA-19
